| time (UTC) | temp F | wind direction | speed knots | gust knots | rain 1hr in | rain 24hr in | rain mn in | humidity % | barometer mb |
| 20260507133729 | 57 | 297 | 1.7 | 4.3 | 0.00 | 0.11 | 0.04 | 72 | 1005.7 |
| 20260507133231 | 57 | 42 | 1.7 | 7.8 | 0.00 | 0.11 | 0.04 | 73 | 1005.5 |
| 20260507132231 | 57 | 102 | 0.9 | 5.2 | 0.00 | 0.11 | 0.04 | 73 | 1005.5 |
| 20260507131730 | 57 | 332 | 1.7 | 5.2 | 0.00 | 0.12 | 0.04 | 75 | 1005.5 |
| 20260507130229 | 56 | 88 | 1.7 | 7.8 | 0.00 | 0.12 | 0.04 | 77 | 1005.5 |
| 20260507125729 | 56 | 343 | 0.9 | 4.3 | 0.00 | 0.12 | 0.04 | 77 | 1005.6 |
| 20260507125230 | 57 | 338 | 0.9 | 1.7 | 0.00 | 0.12 | 0.04 | 80 | 1005.6 |
| 20260507123227 | 57 | 87 | 0.9 | 3.5 | 0.00 | 0.12 | 0.04 | 81 | 1005.3 |
| 20260507122729 | 57 | 281 | 0.9 | 2.6 | 0.00 | 0.12 | 0.04 | 82 | 1005.4 |
| 20260507122224 | 56 | 328 | 0.9 | 2.6 | 0.00 | 0.12 | 0.04 | 82 | 1005.4 |
| 20260507121725 | 56 | 276 | 0.9 | 3.5 | 0.00 | 0.12 | 0.04 | 83 | 1005.2 |
| 20260507121222 | 56 | 291 | 0.9 | 3.5 | 0.00 | 0.12 | 0.04 | 82 | 1005.1 |
| 20260507120220 | 56 | 330 | 0.0 | 2.6 | 0.00 | 0.12 | 0.04 | 83 | 1004.7 |
| 20260507115218 | 56 | 252 | 0.9 | 3.5 | 0.00 | 0.12 | 0.04 | 85 | 1004.9 |
| 20260507114718 | 55 | 341 | 0.9 | 3.5 | 0.00 | 0.12 | 0.04 | 84 | 1005.0 |
| 20260507113715 | 55 | 232 | 0.0 | 3.5 | 0.00 | 0.12 | 0.04 | 85 | 1005.0 |
| 20260507113215 | 55 | 346 | 0.0 | 3.5 | 0.00 | 0.12 | 0.04 | 85 | 1005.0 |
| 20260507112209 | 55 | 254 | 0.9 | 2.6 | 0.00 | 0.12 | 0.04 | 85 | 1004.6 |
| 20260507111707 | 55 | 347 | 0.9 | 2.6 | 0.00 | 0.12 | 0.04 | 85 | 1004.8 |
| 20260507111203 | 55 | 318 | 0.9 | 2.6 | 0.00 | 0.12 | 0.04 | 85 | 1004.7 |
| 20260507110703 | 55 | 320 | 0.9 | 2.6 | 0.00 | 0.12 | 0.04 | 85 | 1004.8 |
| 20260507110201 | 55 | 0 | 0.9 | 4.3 | 0.00 | 0.12 | 0.04 | 86 | 1004.9 |
| 20260507105700 | 55 | 301 | 0.9 | 4.3 | 0.00 | 0.12 | 0.04 | 86 | 1004.8 |
| 20260507105158 | 55 | 299 | 0.0 | 1.7 | 0.00 | 0.12 | 0.04 | 87 | 1004.7 |
| 20260507104659 | 55 | 10 | 0.0 | 1.7 | 0.00 | 0.12 | 0.04 | 87 | 1004.7 |
| 20260507104159 | 54 | 309 | 0.0 | 1.7 | 0.00 | 0.12 | 0.04 | 87 | 1004.6 |
| 20260507103656 | 54 | 299 | 0.0 | 1.7 | 0.00 | 0.12 | 0.04 | 87 | 1004.7 |
| 20260507103149 | 54 | 320 | 0.0 | 0.9 | 0.00 | 0.12 | 0.04 | 87 | 1004.5 |
| 20260507102649 | 54 | 320 | 0.0 | 4.3 | 0.00 | 0.12 | 0.04 | 87 | 1004.5 |
| 20260507102150 | 54 | 322 | 0.0 | 4.3 | 0.00 | 0.12 | 0.04 | 87 | 1004.2 |
| 20260507101651 | 54 | 343 | 0.0 | 1.7 | 0.00 | 0.12 | 0.04 | 87 | 1004.3 |
| 20260507101149 | 54 | 303 | 0.0 | 1.7 | 0.00 | 0.12 | 0.04 | 88 | 1004.2 |
| 20260507100649 | 54 | 14 | 0.0 | 1.7 | 0.00 | 0.12 | 0.04 | 87 | 1004.2 |
| 20260507100149 | 54 | 324 | 0.0 | 2.6 | 0.00 | 0.12 | 0.04 | 87 | 1004.3 |
| 20260507095150 | 54 | 342 | 0.0 | 1.7 | 0.00 | 0.12 | 0.04 | 87 | 1004.4 |
| 20260507094646 | 54 | 320 | 0.0 | 1.7 | 0.00 | 0.12 | 0.04 | 87 | 1004.3 |
| 20260507094145 | 54 | 329 | 0.0 | 0.9 | 0.00 | 0.12 | 0.04 | 88 | 1004.3 |
| 20260507093645 | 54 | 323 | 0.0 | 1.7 | 0.00 | 0.12 | 0.04 | 87 | 1004.2 |
| 20260507093146 | 54 | 324 | 0.0 | 2.6 | 0.00 | 0.12 | 0.04 | 87 | 1004.2 |
| 20260507092646 | 54 | 308 | 0.0 | 2.6 | 0.00 | 0.12 | 0.04 | 87 | 1004.2 |
| 20260507092146 | 54 | 97 | 0.0 | 0.9 | 0.01 | 0.12 | 0.04 | 88 | 1004.2 |
| 20260507091645 | 54 | 97 | 0.0 | 0.9 | 0.01 | 0.12 | 0.04 | 88 | 1004.4 |
| 20260507091145 | 54 | 324 | 0.0 | 2.6 | 0.01 | 0.12 | 0.04 | 88 | 1004.1 |
| 20260507090145 | 54 | 314 | 0.0 | 2.6 | 0.01 | 0.12 | 0.04 | 89 | 1003.8 |
| 20260507085145 | 54 | 320 | 0.0 | 0.9 | 0.01 | 0.12 | 0.04 | 89 | 1003.7 |
| 20260507084144 | 54 | 307 | 0.0 | 1.7 | 0.01 | 0.12 | 0.04 | 89 | 1003.9 |
| 20260507083647 | 54 | 302 | 0.0 | 1.7 | 0.01 | 0.12 | 0.04 | 88 | 1003.9 |
| 20260507083145 | 55 | 277 | 0.0 | 1.7 | 0.01 | 0.12 | 0.04 | 88 | 1003.9 |
| 20260507082646 | 55 | 277 | 0.0 | 1.7 | 0.01 | 0.12 | 0.04 | 88 | 1004.0 |
| 20260507082145 | 55 | 278 | 0.0 | 1.7 | 0.00 | 0.11 | 0.03 | 87 | 1004.2 |
| 20260507081645 | 55 | 353 | 0.0 | 2.6 | 0.00 | 0.11 | 0.03 | 86 | 1004.5 |
| 20260507080145 | 56 | 145 | 1.7 | 7.0 | 0.00 | 0.11 | 0.03 | 85 | 1003.6 |
| 20260507075647 | 56 | 293 | 1.7 | 7.0 | 0.00 | 0.11 | 0.03 | 87 | 1003.6 |
| 20260507075146 | 56 | 297 | 1.7 | 7.0 | 0.00 | 0.11 | 0.03 | 88 | 1003.6 |
| 20260507074647 | 56 | 0 | 0.9 | 3.5 | 0.00 | 0.11 | 0.03 | 89 | 1003.5 |
| 20260507074146 | 56 | 342 | 0.9 | 3.5 | 0.00 | 0.11 | 0.03 | 89 | 1003.5 |
| 20260507073642 | 56 | 342 | 0.0 | 3.5 | 0.00 | 0.11 | 0.03 | 89 | 1003.5 |
| 20260507073142 | 56 | 226 | 0.9 | 3.5 | 0.00 | 0.11 | 0.03 | 89 | 1003.3 |
| 20260507072639 | 56 | 222 | 0.9 | 3.5 | 0.00 | 0.11 | 0.03 | 90 | 1003.1 |
| 20260507072139 | 56 | 0 | 0.9 | 3.5 | 0.00 | 0.11 | 0.03 | 90 | 1003.2 |
| 20260507071638 | 56 | 319 | 0.9 | 3.5 | 0.00 | 0.11 | 0.03 | 90 | 1003.3 |
| 20260507071138 | 56 | 318 | 0.9 | 2.6 | 0.00 | 0.11 | 0.03 | 89 | 1003.4 |
| 20260507070633 | 56 | 355 | 0.9 | 2.6 | 0.00 | 0.11 | 0.03 | 89 | 1003.3 |
| 20260507070136 | 56 | 335 | 0.9 | 5.2 | 0.00 | 0.11 | 0.03 | 89 | 1003.5 |
| 20260507065632 | 56 | 333 | 0.9 | 5.2 | 0.00 | 0.11 | 0.03 | 90 | 1003.3 |
| 20260507064632 | 57 | 304 | 0.9 | 4.3 | 0.01 | 0.11 | 0.03 | 90 | 1003.2 |
| 20260507064132 | 57 | 74 | 1.7 | 3.5 | 0.01 | 0.11 | 0.03 | 90 | 1003.4 |
| 20260507063126 | 57 | 0 | 1.7 | 4.3 | 0.01 | 0.11 | 0.03 | 91 | 1003.7 |
| 20260507061627 | 58 | 320 | 1.7 | 5.2 | 0.02 | 0.11 | 0.03 | 91 | 1003.1 |
| 20260507061126 | 58 | 0 | 0.9 | 3.5 | 0.02 | 0.11 | 0.03 | 91 | 1003.0 |
| 20260507060625 | 58 | 339 | 0.9 | 2.6 | 0.02 | 0.11 | 0.03 | 90 | 1002.6 |
| 20260507060124 | 58 | 16 | 0.9 | 2.6 | 0.02 | 0.11 | 0.03 | 90 | 1002.1 |
| 20260507055623 | 58 | 330 | 0.0 | 2.6 | 0.01 | 0.10 | 0.03 | 90 | 1002.1 |
| 20260507055026 | 58 | 279 | 0.0 | 1.7 | 0.01 | 0.10 | 0.02 | 90 | 1001.9 |
| 20260507054527 | 58 | 170 | 0.9 | 4.3 | 0.01 | 0.10 | 0.02 | 90 | 1002.0 |
| 20260507054027 | 58 | 229 | 0.9 | 4.3 | 0.02 | 0.10 | 0.02 | 89 | 1002.1 |
| 20260507053528 | 58 | 84 | 0.9 | 2.6 | 0.02 | 0.10 | 0.02 | 89 | 1002.3 |
| 20260507053025 | 59 | 325 | 0.9 | 2.6 | 0.02 | 0.10 | 0.02 | 89 | 1002.9 |
| 20260507052525 | 59 | 301 | 0.9 | 5.2 | 0.02 | 0.10 | 0.02 | 89 | 1003.2 |
| 20260507051523 | 60 | 0 | 0.9 | 4.3 | 0.01 | 0.09 | 0.01 | 88 | 1003.4 |
| 20260507051023 | 60 | 88 | 0.9 | 7.0 | 0.01 | 0.09 | 0.01 | 88 | 1003.4 |
| 20260507050020 | 61 | 272 | 1.7 | 3.5 | 0.01 | 0.09 | 0.01 | 88 | 1003.3 |
| 20260507045020 | 63 | 305 | 0.9 | 4.3 | 0.01 | 0.09 | 0.01 | 88 | 1003.1 |
| 20260507044521 | 63 | 56 | 1.7 | 5.2 | 0.01 | 0.09 | 0.01 | 88 | 1003.0 |
| 20260507044020 | 64 | 79 | 1.7 | 5.2 | 0.00 | 0.08 | 0.00 | 88 | 1002.9 |
| 20260507043520 | 64 | 60 | 0.9 | 4.3 | 0.00 | 0.08 | 0.00 | 89 | 1003.2 |
| 20260507043016 | 65 | 343 | 0.0 | 1.7 | 0.00 | 0.08 | 0.00 | 89 | 1003.0 |
| 20260507042515 | 65 | 214 | 0.0 | 1.7 | 0.00 | 0.08 | 0.00 | 89 | 1002.7 |
| 20260507042016 | 65 | 214 | 0.0 | 1.7 | 0.00 | 0.08 | 0.00 | 88 | 1002.6 |
| 20260507041516 | 65 | 214 | 0.0 | 0.9 | 0.00 | 0.08 | 0.00 | 88 | 1002.3 |
| 20260507041014 | 65 | 214 | 0.0 | 0.9 | 0.00 | 0.08 | 0.00 | 87 | 1002.4 |
| 20260507040515 | 65 | 214 | 0.0 | 0.9 | 0.00 | 0.08 | 0.00 | 87 | 1002.7 |
| 20260507040015 | 65 | 214 | 0.0 | 0.0 | 0.00 | 0.08 | 0.00 | 87 | 1002.6 |
| 20260507035514 | 65 | 214 | 0.0 | 0.0 | 0.00 | 0.08 | 0.08 | 87 | 1002.5 |
| 20260507035016 | 65 | 214 | 0.0 | 0.0 | 0.00 | 0.08 | 0.08 | 87 | 1002.4 |
| 20260507034511 | 65 | 214 | 0.0 | 0.0 | 0.00 | 0.08 | 0.08 | 86 | 1002.4 |
| 20260507034010 | 65 | 214 | 0.0 | 0.0 | 0.00 | 0.08 | 0.08 | 86 | 1002.3 |
| 20260507033510 | 65 | 214 | 0.0 | 0.0 | 0.00 | 0.08 | 0.08 | 85 | 1002.3 |
| 20260507033011 | 65 | 214 | 0.0 | 0.0 | 0.00 | 0.08 | 0.08 | 85 | 1002.1 |
| 20260507032511 | 66 | 214 | 0.0 | 0.9 | 0.00 | 0.08 | 0.08 | 85 | 1002.0 |
| 20260507032010 | 66 | 214 | 0.0 | 0.9 | 0.00 | 0.08 | 0.08 | 84 | 1002.0 |
| 20260507031510 | 66 | 214 | 0.0 | 0.9 | 0.00 | 0.08 | 0.08 | 84 | 1002.3 |
| 20260507031010 | 66 | 214 | 0.0 | 0.0 | 0.00 | 0.08 | 0.08 | 84 | 1002.6 |
| 20260507030511 | 66 | 214 | 0.0 | 0.0 | 0.00 | 0.08 | 0.08 | 84 | 1002.5 |
| 20260507030007 | 66 | 214 | 0.0 | 0.0 | 0.00 | 0.08 | 0.08 | 84 | 1002.3 |
| 20260507025506 | 66 | 214 | 0.0 | 0.0 | 0.00 | 0.08 | 0.08 | 85 | 1002.1 |
| 20260507025006 | 66 | 214 | 0.0 | 0.0 | 0.00 | 0.08 | 0.08 | 85 | 1002.2 |
| 20260507024506 | 65 | 214 | 0.0 | 0.0 | 0.00 | 0.08 | 0.08 | 85 | 1002.2 |
| 20260507024003 | 65 | 214 | 0.0 | 0.0 | 0.00 | 0.08 | 0.08 | 85 | 1002.1 |
| 20260507023504 | 65 | 214 | 0.0 | 0.0 | 0.00 | 0.08 | 0.08 | 85 | 1001.8 |
| 20260507023004 | 65 | 214 | 0.0 | 0.0 | 0.00 | 0.08 | 0.08 | 85 | 1001.6 |
| 20260507022504 | 65 | 214 | 0.0 | 0.0 | 0.00 | 0.08 | 0.08 | 85 | 1001.4 |
| 20260507022004 | 65 | 214 | 0.0 | 0.0 | 0.00 | 0.08 | 0.08 | 84 | 1001.5 |
| 20260507021504 | 66 | 214 | 0.0 | 0.0 | 0.00 | 0.08 | 0.08 | 83 | 1001.5 |
| 20260507021007 | 66 | 214 | 0.0 | 0.0 | 0.00 | 0.08 | 0.08 | 84 | 1001.6 |
| 20260507020504 | 65 | 214 | 0.0 | 0.0 | 0.00 | 0.08 | 0.08 | 85 | 1001.8 |
| 20260507015501 | 65 | 214 | 0.0 | 0.9 | 0.00 | 0.08 | 0.08 | 85 | 1001.9 |
| 20260507015001 | 65 | 214 | 0.0 | 0.9 | 0.00 | 0.08 | 0.08 | 85 | 1001.9 |
| 20260507014459 | 65 | 276 | 0.0 | 0.0 | 0.00 | 0.08 | 0.08 | 84 | 1002.0 |
| 20260507014002 | 65 | 276 | 0.0 | 0.0 | 0.00 | 0.08 | 0.08 | 83 | 1002.1 |
| 20260507013459 | 66 | 276 | 0.0 | 0.9 | 0.00 | 0.08 | 0.08 | 83 | 1002.2 |
| 20260507013000 | 66 | 276 | 0.0 | 0.9 | 0.00 | 0.08 | 0.08 | 83 | 1002.3 |
| 20260507012500 | 66 | 276 | 0.0 | 0.9 | 0.00 | 0.08 | 0.08 | 83 | 1002.1 |
| 20260507012001 | 66 | 276 | 0.0 | 0.0 | 0.00 | 0.08 | 0.08 | 83 | 1002.3 |
| 20260507011000 | 66 | 276 | 0.0 | 0.0 | 0.00 | 0.08 | 0.08 | 82 | 1002.0 |
| 20260507010501 | 67 | 276 | 0.0 | 0.9 | 0.00 | 0.08 | 0.08 | 81 | 1002.0 |
| 20260507005457 | 67 | 353 | 0.0 | 1.7 | 0.00 | 0.08 | 0.08 | 81 | 1002.0 |
| 20260507005000 | 67 | 103 | 0.0 | 0.9 | 0.00 | 0.08 | 0.08 | 81 | 1001.9 |
| 20260507004457 | 67 | 160 | 0.0 | 0.9 | 0.00 | 0.08 | 0.08 | 80 | 1001.7 |
| 20260507003952 | 68 | 170 | 0.0 | 1.7 | 0.00 | 0.08 | 0.08 | 80 | 1001.8 |
| 20260507003449 | 68 | 270 | 0.0 | 1.7 | 0.00 | 0.08 | 0.08 | 80 | 1001.7 |
| 20260507002953 | 68 | 272 | 0.0 | 3.5 | 0.00 | 0.08 | 0.08 | 80 | 1001.8 |
| 20260507002447 | 68 | 212 | 0.0 | 3.5 | 0.00 | 0.08 | 0.08 | 80 | 1001.8 |
| 20260507001948 | 68 | 277 | 0.0 | 3.5 | 0.00 | 0.08 | 0.08 | 79 | 1001.8 |
| 20260507001446 | 68 | 310 | 0.0 | 3.5 | 0.00 | 0.08 | 0.08 | 80 | 1002.0 |
| 20260507000946 | 68 | 142 | 0.0 | 3.5 | 0.00 | 0.08 | 0.08 | 79 | 1001.8 |
| 20260506235940 | 69 | 222 | 0.0 | 5.2 | 0.00 | 0.08 | 0.08 | 79 | 1001.8 |
| 20260506235441 | 69 | 263 | 0.0 | 5.2 | 0.00 | 0.08 | 0.08 | 79 | 1001.7 |
| 20260506234939 | 69 | 285 | 0.0 | 1.7 | 0.00 | 0.08 | 0.08 | 78 | 1001.6 |
| 20260506234438 | 69 | 285 | 0.0 | 1.7 | 0.00 | 0.08 | 0.08 | 78 | 1001.5 |
| 20260506233938 | 69 | 234 | 0.0 | 1.7 | 0.00 | 0.08 | 0.08 | 78 | 1001.3 |
| 20260506233436 | 70 | 170 | 0.0 | 1.7 | 0.00 | 0.08 | 0.08 | 78 | 1001.2 |
| 20260506232434 | 70 | 73 | 0.9 | 5.2 | 0.00 | 0.08 | 0.08 | 77 | 1001.3 |
| 20260506231935 | 70 | 246 | 0.9 | 5.2 | 0.00 | 0.08 | 0.08 | 77 | 1001.1 |
| 20260506231432 | 70 | 212 | 0.9 | 3.5 | 0.00 | 0.08 | 0.08 | 77 | 1001.2 |
| 20260506230428 | 70 | 308 | 0.9 | 4.3 | 0.00 | 0.08 | 0.08 | 76 | 1001.2 |
| 20260506225927 | 70 | 217 | 0.9 | 6.1 | 0.00 | 0.08 | 0.08 | 76 | 1001.1 |
| 20260506225428 | 70 | 239 | 0.9 | 6.1 | 0.00 | 0.08 | 0.08 | 75 | 1001.1 |
| 20260506224922 | 71 | 260 | 0.9 | 7.0 | 0.00 | 0.08 | 0.08 | 75 | 1001.2 |
| 20260506224422 | 71 | 49 | 0.9 | 7.0 | 0.00 | 0.08 | 0.08 | 75 | 1001.2 |
| 20260506223921 | 71 | 16 | 0.9 | 5.2 | 0.00 | 0.08 | 0.08 | 75 | 1001.1 |
| 20260506223422 | 71 | 188 | 0.9 | 5.2 | 0.00 | 0.08 | 0.08 | 74 | 1001.2 |
| 20260506222917 | 71 | 309 | 1.7 | 6.1 | 0.00 | 0.08 | 0.08 | 74 | 1001.2 |
| 20260506222418 | 71 | 282 | 1.7 | 6.1 | 0.00 | 0.08 | 0.08 | 74 | 1001.2 |
| 20260506221918 | 71 | 135 | 0.9 | 6.1 | 0.00 | 0.08 | 0.08 | 73 | 1001.3 |
| 20260506215917 | 72 | 217 | 1.7 | 7.8 | 0.00 | 0.08 | 0.08 | 72 | 1001.2 |
| 20260506215415 | 72 | 254 | 0.9 | 4.3 | 0.00 | 0.08 | 0.08 | 73 | 1001.0 |
| 20260506214916 | 72 | 348 | 0.9 | 4.3 | 0.00 | 0.08 | 0.08 | 74 | 1001.0 |
| 20260506214416 | 72 | 264 | 1.7 | 7.0 | 0.00 | 0.08 | 0.08 | 72 | 1001.1 |
| 20260506213914 | 72 | 72 | 1.7 | 7.0 | 0.00 | 0.08 | 0.08 | 73 | 1001.0 |
| 20260506213415 | 72 | 10 | 1.7 | 5.2 | 0.00 | 0.08 | 0.08 | 73 | 1001.2 |
| 20260506212913 | 72 | 176 | 1.7 | 5.2 | 0.00 | 0.08 | 0.08 | 72 | 1001.2 |
| 20260506212413 | 72 | 332 | 1.7 | 7.0 | 0.00 | 0.08 | 0.08 | 73 | 1001.0 |
| 20260506211913 | 72 | 56 | 1.7 | 8.7 | 0.00 | 0.08 | 0.08 | 72 | 1001.0 |
| 20260506211410 | 72 | 289 | 1.7 | 8.7 | 0.00 | 0.08 | 0.08 | 73 | 1001.1 |
| 20260506210912 | 71 | 273 | 0.9 | 5.2 | 0.00 | 0.08 | 0.08 | 74 | 1001.0 |
| 20260506210411 | 71 | 164 | 0.9 | 5.2 | 0.00 | 0.08 | 0.08 | 74 | 1001.0 |
| 20260506205907 | 71 | 66 | 1.7 | 7.8 | 0.00 | 0.08 | 0.08 | 74 | 1001.0 |
| 20260506205409 | 71 | 186 | 2.6 | 7.8 | 0.00 | 0.08 | 0.08 | 73 | 1001.1 |
| 20260506204907 | 71 | 302 | 1.7 | 7.0 | 0.00 | 0.08 | 0.08 | 73 | 1001.0 |
| 20260506204408 | 71 | 72 | 1.7 | 8.7 | 0.00 | 0.08 | 0.08 | 74 | 1001.1 |
| 20260506203908 | 71 | 192 | 1.7 | 8.7 | 0.00 | 0.08 | 0.08 | 74 | 1001.1 |
| 20260506202908 | 70 | 293 | 1.7 | 6.1 | 0.00 | 0.08 | 0.08 | 74 | 1001.1 |
| 20260506202408 | 70 | 323 | 1.7 | 7.0 | 0.00 | 0.08 | 0.08 | 74 | 1001.0 |
| 20260506201908 | 70 | 187 | 1.7 | 7.8 | 0.00 | 0.08 | 0.08 | 75 | 1001.3 |
| 20260506200907 | 70 | 145 | 1.7 | 5.2 | 0.00 | 0.08 | 0.08 | 76 | 1001.2 |
| 20260506200409 | 69 | 188 | 1.7 | 5.2 | 0.00 | 0.08 | 0.08 | 77 | 1001.2 |
| 20260506195907 | 68 | 176 | 1.7 | 6.1 | 0.00 | 0.08 | 0.08 | 78 | 1001.2 |
| 20260506195407 | 68 | 143 | 1.7 | 6.1 | 0.00 | 0.08 | 0.08 | 77 | 1001.2 |
| 20260506194908 | 68 | 36 | 0.9 | 6.1 | 0.00 | 0.08 | 0.08 | 78 | 1001.2 |
| 20260506194405 | 68 | 279 | 1.7 | 6.1 | 0.00 | 0.08 | 0.08 | 78 | 1001.3 |
| 20260506193904 | 67 | 336 | 1.7 | 6.1 | 0.00 | 0.08 | 0.08 | 78 | 1001.3 |
| 20260506193406 | 67 | 325 | 0.9 | 5.2 | 0.00 | 0.08 | 0.08 | 79 | 1001.5 |
| 20260506192401 | 68 | 191 | 0.9 | 6.1 | 0.01 | 0.08 | 0.08 | 79 | 1001.9 |
| 20260506191902 | 67 | 320 | 1.7 | 6.1 | 0.01 | 0.08 | 0.08 | 79 | 1001.8 |
| 20260506191402 | 67 | 284 | 2.6 | 6.1 | 0.01 | 0.08 | 0.08 | 78 | 1001.8 |
| 20260506190901 | 67 | 216 | 2.6 | 6.1 | 0.01 | 0.08 | 0.08 | 78 | 1001.9 |
| 20260506190400 | 67 | 290 | 1.7 | 6.1 | 0.01 | 0.08 | 0.08 | 78 | 1002.0 |
| 20260506185858 | 67 | 35 | 1.7 | 5.2 | 0.01 | 0.08 | 0.08 | 78 | 1002.0 |
| 20260506184858 | 68 | 309 | 1.7 | 4.3 | 0.01 | 0.08 | 0.08 | 80 | 1002.2 |
| 20260506184356 | 67 | 335 | 2.6 | 7.0 | 0.01 | 0.08 | 0.08 | 79 | 1002.2 |
| 20260506183354 | 67 | 334 | 2.6 | 8.7 | 0.01 | 0.08 | 0.08 | 78 | 1002.0 |
| 20260506182852 | 68 | 43 | 1.7 | 7.8 | 0.00 | 0.07 | 0.07 | 79 | 1002.1 |
| 20260506182351 | 68 | 196 | 1.7 | 7.8 | 0.00 | 0.07 | 0.07 | 78 | 1002.3 |
| 20260506181850 | 67 | 183 | 1.7 | 7.0 | 0.00 | 0.07 | 0.07 | 79 | 1002.4 |
| 20260506181349 | 67 | 15 | 1.7 | 7.0 | 0.00 | 0.07 | 0.07 | 79 | 1002.5 |
| 20260506180849 | 67 | 14 | 1.7 | 7.0 | 0.00 | 0.07 | 0.07 | 79 | 1002.3 |
| 20260506175851 | 67 | 187 | 1.7 | 3.5 | 0.00 | 0.07 | 0.07 | 80 | 1002.4 |
| 20260506175351 | 67 | 137 | 1.7 | 8.7 | 0.00 | 0.07 | 0.07 | 79 | 1002.4 |
| 20260506174851 | 67 | 15 | 2.6 | 8.7 | 0.00 | 0.07 | 0.07 | 79 | 1002.3 |
| 20260506173850 | 66 | 43 | 1.7 | 5.2 | 0.00 | 0.07 | 0.07 | 81 | 1002.5 |
| 20260506173349 | 66 | 106 | 1.7 | 5.2 | 0.00 | 0.07 | 0.07 | 81 | 1002.5 |
| 20260506172848 | 66 | 322 | 0.9 | 4.3 | 0.00 | 0.07 | 0.07 | 82 | 1002.6 |
| 20260506172348 | 66 | 93 | 1.7 | 7.8 | 0.00 | 0.07 | 0.07 | 82 | 1002.6 |
| 20260506171848 | 66 | 324 | 1.7 | 7.8 | 0.00 | 0.07 | 0.07 | 82 | 1002.6 |
| 20260506171349 | 66 | 49 | 1.7 | 7.0 | 0.00 | 0.07 | 0.07 | 82 | 1002.5 |
| 20260506170846 | 66 | 311 | 1.7 | 7.0 | 0.00 | 0.07 | 0.07 | 82 | 1002.5 |
| 20260506170346 | 66 | 112 | 1.7 | 6.1 | 0.00 | 0.07 | 0.07 | 82 | 1002.5 |
| 20260506165345 | 66 | 35 | 1.7 | 7.0 | 0.00 | 0.07 | 0.07 | 82 | 1002.6 |
| 20260506164842 | 66 | 201 | 1.7 | 6.1 | 0.00 | 0.07 | 0.07 | 84 | 1002.7 |
| 20260506164342 | 65 | 104 | 2.6 | 8.7 | 0.00 | 0.07 | 0.07 | 83 | 1002.8 |
| 20260506163844 | 65 | 334 | 1.7 | 8.7 | 0.00 | 0.07 | 0.07 | 83 | 1002.7 |
| 20260506161843 | 65 | 119 | 1.7 | 4.3 | 0.00 | 0.07 | 0.07 | 86 | 1003.4 |
| 20260506161343 | 64 | 253 | 1.7 | 4.3 | 0.00 | 0.07 | 0.07 | 87 | 1003.1 |
| 20260506160842 | 64 | 249 | 1.7 | 6.1 | 0.00 | 0.07 | 0.07 | 87 | 1003.2 |
| 20260506160342 | 63 | 177 | 0.9 | 6.1 | 0.00 | 0.07 | 0.07 | 88 | 1003.0 |
| 20260506155843 | 63 | 74 | 0.9 | 3.5 | 0.01 | 0.07 | 0.07 | 88 | 1003.1 |
| 20260506155342 | 63 | 183 | 0.9 | 3.5 | 0.01 | 0.07 | 0.07 | 88 | 1003.1 |
| 20260506154842 | 63 | 18 | 0.9 | 5.2 | 0.02 | 0.07 | 0.07 | 88 | 1003.1 |
| 20260506154344 | 63 | 179 | 0.9 | 5.2 | 0.02 | 0.07 | 0.07 | 88 | 1003.2 |
| 20260506153839 | 63 | 191 | 0.9 | 3.5 | 0.02 | 0.07 | 0.07 | 88 | 1003.1 |
| 20260506153338 | 63 | 42 | 0.9 | 2.6 | 0.02 | 0.07 | 0.07 | 89 | 1003.3 |
| 20260506152837 | 62 | 299 | 0.9 | 4.3 | 0.03 | 0.07 | 0.07 | 89 | 1003.3 |
| 20260506152337 | 62 | 105 | 0.9 | 4.3 | 0.05 | 0.07 | 0.07 | 89 | 1003.0 |
| 20260506151837 | 62 | 237 | 0.9 | 6.1 | 0.05 | 0.07 | 0.07 | 89 | 1003.0 |
| 20260506150835 | 62 | 130 | 0.9 | 5.2 | 0.05 | 0.07 | 0.07 | 88 | 1003.0 |
| 20260506145836 | 62 | 203 | 1.7 | 5.2 | 0.04 | 0.06 | 0.06 | 88 | 1003.4 |
| 20260506144835 | 62 | 178 | 0.9 | 6.1 | 0.04 | 0.05 | 0.05 | 88 | 1003.7 |
| 20260506144334 | 62 | 255 | 0.9 | 2.6 | 0.04 | 0.05 | 0.05 | 87 | 1003.9 |
| 20260506143834 | 62 | 191 | 0.9 | 2.6 | 0.04 | 0.05 | 0.05 | 87 | 1003.8 |
| 20260506143334 | 62 | 183 | 0.9 | 4.3 | 0.04 | 0.05 | 0.05 | 87 | 1003.9 |
| 20260506142335 | 62 | 245 | 0.9 | 5.2 | 0.01 | 0.02 | 0.02 | 85 | 1003.8 |
| 20260506140832 | 62 | 176 | 0.0 | 2.6 | 0.02 | 0.02 | 0.02 | 86 | 1003.6 |
| 20260506140332 | 62 | 89 | 0.9 | 1.7 | 0.02 | 0.02 | 0.02 | 85 | 1003.7 |
| 20260506135832 | 62 | 46 | 0.9 | 3.5 | 0.02 | 0.02 | 0.02 | 84 | 1003.6 |
| 20260506135327 | 62 | 185 | 0.9 | 3.5 | 0.01 | 0.01 | 0.01 | 84 | 1003.6 |